Time,TemperatureF,DewpointF,PressureIn,WindDirection,WindDirectionDegrees,WindSpeedMPH,WindSpeedGustMPH,Humidity,HourlyPrecipIn,Conditions,Clouds,dailyrainin,SoftwareType,DateUTC
2013-06-05 00:00:00,78.2,73.3,30.00,North,359,1.0,1.0,85,0.00,,,0.00,Wunderground v.1.15,2013-06-05 04:00:00,
2013-06-05 00:01:00,78.2,73.0,30.00,ENE,58,0.0,3.0,85,0.00,,,0.00,weatherlink.com 1.10,2013-06-05 04:01:00,
2013-06-05 00:05:00,78.3,73.4,30.00,NE,43,0.0,3.0,85,0.00,,,0.00,Wunderground v.1.15,2013-06-05 04:05:00,
2013-06-05 00:10:00,78.2,73.3,30.00,NE,47,0.0,3.0,85,0.00,,,0.00,Wunderground v.1.15,2013-06-05 04:10:00,
2013-06-05 00:17:00,78.2,73.0,30.00,East,90,0.0,3.0,85,0.00,,,0.00,weatherlink.com 1.10,2013-06-05 04:17:00,
2013-06-05 00:25:00,78.2,73.3,29.99,ENE,57,1.0,3.0,85,0.00,,,0.00,Wunderground v.1.15,2013-06-05 04:25:00,
2013-06-05 00:32:00,78.3,74.0,29.99,ENE,57,0.0,4.0,86,0.00,,,0.00,weatherlink.com 1.10,2013-06-05 04:32:00,
2013-06-05 00:40:00,78.1,73.6,29.99,East,98,1.0,3.0,86,0.00,,,0.00,Wunderground v.1.15,2013-06-05 04:40:00,
2013-06-05 00:47:00,78.0,73.0,29.99,NE,45,0.0,3.0,86,0.00,,,0.00,weatherlink.com 1.10,2013-06-05 04:47:00,
2013-06-05 00:55:00,77.9,73.7,29.99,SE,143,0.0,3.0,87,0.00,,,0.00,Wunderground v.1.15,2013-06-05 04:55:00,
2013-06-05 01:02:00,77.7,74.0,29.99,ESE,110,0.0,3.0,87,0.00,,,0.00,weatherlink.com 1.10,2013-06-05 05:02:00,
2013-06-05 01:10:00,77.6,73.8,29.99,ENE,77,0.0,3.0,88,0.00,,,0.00,Wunderground v.1.15,2013-06-05 05:10:00,
2013-06-05 01:16:00,77.5,74.0,29.98,SE,139,0.0,5.0,88,0.00,,,0.00,weatherlink.com 1.10,2013-06-05 05:16:00,
2013-06-05 01:25:00,77.4,73.6,29.98,ENE,78,0.0,3.0,88,0.00,,,0.00,Wunderground v.1.15,2013-06-05 05:25:00,
2013-06-05 01:31:00,77.4,74.0,29.98,North,354,0.0,3.0,88,0.00,,,0.00,weatherlink.com 1.10,2013-06-05 05:31:00,
2013-06-05 01:40:00,77.4,73.6,29.98,ENE,75,1.0,3.0,88,0.00,,,0.00,Wunderground v.1.15,2013-06-05 05:40:00,
2013-06-05 01:46:00,77.4,74.0,29.98,NNE,24,0.0,3.0,88,0.00,,,0.00,weatherlink.com 1.10,2013-06-05 05:46:00,
2013-06-05 01:55:00,77.4,73.2,29.97,SE,131,1.0,3.0,87,0.00,,,0.00,Wunderground v.1.15,2013-06-05 05:55:00,
2013-06-05 02:00:00,77.5,73.3,29.97,ESE,103,1.0,1.0,87,0.00,,,0.00,Wunderground v.1.15,2013-06-05 06:00:00,
2013-06-05 02:10:00,77.4,73.2,29.96,SE,134,0.0,7.0,87,0.00,,,0.00,Wunderground v.1.15,2013-06-05 06:10:00,
2013-06-05 02:15:00,77.4,73.0,29.96,ENE,68,0.0,4.0,87,0.00,,,0.00,weatherlink.com 1.10,2013-06-05 06:15:00,
2013-06-05 02:25:00,77.4,73.2,29.96,ENE,63,0.0,7.0,87,0.00,,,0.00,Wunderground v.1.15,2013-06-05 06:25:00,
2013-06-05 02:30:00,77.4,73.0,29.96,ENE,68,0.0,5.0,87,0.00,,,0.00,weatherlink.com 1.10,2013-06-05 06:30:00,
2013-06-05 02:40:00,77.4,73.2,29.95,NNW,345,1.0,1.0,87,0.00,,,0.00,Wunderground v.1.15,2013-06-05 06:40:00,
2013-06-05 02:50:00,77.4,73.2,29.95,NNE,31,0.0,7.0,87,0.00,,,0.00,Wunderground v.1.15,2013-06-05 06:50:00,
2013-06-05 02:59:00,77.4,74.0,29.95,NE,35,2.0,4.0,88,0.00,,,0.00,weatherlink.com 1.10,2013-06-05 06:59:00,
2013-06-05 03:05:00,77.4,73.6,29.95,South,173,1.0,7.0,88,0.00,,,0.00,Wunderground v.1.15,2013-06-05 07:05:00,
2013-06-05 03:14:00,77.4,74.0,29.95,ENE,59,2.0,5.0,88,0.00,,,0.00,weatherlink.com 1.10,2013-06-05 07:14:00,
2013-06-05 03:20:00,77.3,73.5,29.95,NNE,28,1.0,7.0,88,0.00,,,0.00,Wunderground v.1.15,2013-06-05 07:20:00,
2013-06-05 03:25:00,77.3,73.5,29.95,NE,44,0.0,7.0,88,0.00,,,0.00,Wunderground v.1.15,2013-06-05 07:25:00,
2013-06-05 03:30:00,77.3,73.5,29.94,NW,311,0.0,7.0,88,0.00,,,0.00,Wunderground v.1.15,2013-06-05 07:30:00,
2013-06-05 03:40:00,77.2,73.4,29.94,ESE,113,0.0,7.0,88,0.00,,,0.00,Wunderground v.1.15,2013-06-05 07:40:00,
2013-06-05 03:50:00,77.1,73.3,29.94,North,357,0.0,7.0,88,0.00,,,0.00,Wunderground v.1.15,2013-06-05 07:50:00,
2013-06-05 03:55:00,77.0,73.2,29.94,West,271,0.0,7.0,88,0.00,,,0.00,Wunderground v.1.15,2013-06-05 07:55:00,
2013-06-05 04:00:00,77.0,73.2,29.94,NE,36,0.0,5.0,88,0.00,,,0.00,Wunderground v.1.15,2013-06-05 08:00:00,
2013-06-05 04:10:00,76.8,73.3,29.94,East,89,0.0,5.0,89,0.00,,,0.00,Wunderground v.1.15,2013-06-05 08:10:00,
2013-06-05 04:20:00,76.7,73.2,29.94,NE,38,0.0,5.0,89,0.00,,,0.00,Wunderground v.1.15,2013-06-05 08:20:00,
2013-06-05 04:27:00,76.7,73.0,29.94,SSE,162,1.0,2.0,89,0.00,,,0.00,weatherlink.com 1.10,2013-06-05 08:27:00,
2013-06-05 04:35:00,76.8,73.3,29.94,East,89,0.0,5.0,89,0.00,,,0.00,Wunderground v.1.15,2013-06-05 08:35:00,
2013-06-05 04:42:00,76.8,73.0,29.94,South,178,0.0,1.0,89,0.00,,,0.00,weatherlink.com 1.10,2013-06-05 08:42:00,
2013-06-05 04:50:00,76.8,73.3,29.94,NE,56,0.0,5.0,89,0.00,,,0.00,Wunderground v.1.15,2013-06-05 08:50:00,
2013-06-05 04:55:00,76.9,73.4,29.94,NE,38,0.0,5.0,89,0.00,,,0.00,Wunderground v.1.15,2013-06-05 08:55:00,
2013-06-05 05:05:00,76.9,73.4,29.94,ENE,77,0.0,2.0,89,0.00,,,0.00,Wunderground v.1.15,2013-06-05 09:05:00,
2013-06-05 05:11:00,76.9,73.0,29.93,ESE,120,1.0,4.0,88,0.00,,,0.00,weatherlink.com 1.10,2013-06-05 09:11:00,
2013-06-05 05:20:00,76.8,73.0,29.93,NE,37,0.0,5.0,88,0.00,,,0.00,Wunderground v.1.15,2013-06-05 09:20:00,
2013-06-05 05:26:00,76.8,73.0,29.93,NNE,17,0.0,3.0,88,0.00,,,0.00,weatherlink.com 1.10,2013-06-05 09:26:00,
2013-06-05 05:35:00,76.7,72.9,29.93,NNW,332,0.0,5.0,88,0.00,,,0.00,Wunderground v.1.15,2013-06-05 09:35:00,
2013-06-05 05:41:00,76.7,73.0,29.93,NE,56,0.0,4.0,88,0.00,,,0.00,weatherlink.com 1.10,2013-06-05 09:41:00,
2013-06-05 05:50:00,76.7,72.9,29.93,East,84,0.0,5.0,88,0.00,,,0.00,Wunderground v.1.15,2013-06-05 09:50:00,
2013-06-05 05:55:00,76.7,73.0,29.93,NNE,31,0.0,2.0,88,0.00,,,0.00,weatherlink.com 1.10,2013-06-05 09:55:00,
2013-06-05 06:05:00,76.5,72.7,29.93,ESE,102,0.0,5.0,88,0.00,,,0.00,Wunderground v.1.15,2013-06-05 10:05:00,
2013-06-05 06:10:00,76.4,73.0,29.93,ENE,60,0.0,2.0,89,0.00,,,0.00,weatherlink.com 1.10,2013-06-05 10:10:00,
2013-06-05 06:20:00,76.3,72.8,29.93,ENE,76,0.0,5.0,89,0.00,,,0.00,Wunderground v.1.15,2013-06-05 10:20:00,
2013-06-05 06:25:00,76.2,73.0,29.93,NE,49,0.0,2.0,89,0.00,,,0.00,weatherlink.com 1.10,2013-06-05 10:25:00,
2013-06-05 06:30:00,76.1,72.6,29.93,ENE,67,0.0,5.0,89,0.00,,,0.00,Wunderground v.1.15,2013-06-05 10:30:00,
2013-06-05 06:40:00,76.2,73.0,29.94,SE,127,0.0,3.0,90,0.00,,,0.00,weatherlink.com 1.10,2013-06-05 10:40:00,
2013-06-05 06:45:00,76.2,72.7,29.94,SE,127,0.0,5.0,89,0.00,,,0.00,Wunderground v.1.15,2013-06-05 10:45:00,
2013-06-05 06:54:00,76.3,73.0,29.94,NE,35,0.0,1.0,90,0.00,,,0.00,weatherlink.com 1.10,2013-06-05 10:54:00,
2013-06-05 07:00:00,76.3,72.8,29.94,SE,139,0.0,5.0,89,0.00,,,0.00,Wunderground v.1.15,2013-06-05 11:00:00,
2013-06-05 07:09:00,76.4,73.0,29.94,East,92,0.0,1.0,89,0.00,,,0.00,weatherlink.com 1.10,2013-06-05 11:09:00,
2013-06-05 07:15:00,76.6,73.1,29.94,SW,228,0.0,5.0,89,0.00,,,0.00,Wunderground v.1.15,2013-06-05 11:15:00,
2013-06-05 07:23:00,76.8,73.0,29.95,NE,44,2.0,2.0,89,0.00,,,0.00,weatherlink.com 1.10,2013-06-05 11:23:00,
2013-06-05 07:30:00,77.0,73.2,29.94,East,98,0.0,5.0,88,0.00,,,0.00,Wunderground v.1.15,2013-06-05 11:30:00,
2013-06-05 07:38:00,77.2,73.0,29.95,South,176,0.0,1.0,88,0.00,,,0.00,weatherlink.com 1.10,2013-06-05 11:38:00,
2013-06-05 07:45:00,77.5,73.3,29.95,NE,44,0.0,5.0,87,0.00,,,0.00,Wunderground v.1.15,2013-06-05 11:45:00,
2013-06-05 07:53:00,77.9,74.0,29.95,NE,46,0.0,1.0,87,0.00,,,0.00,weatherlink.com 1.10,2013-06-05 11:53:00,
2013-06-05 08:00:00,78.1,73.9,29.95,NNE,12,0.0,5.0,87,0.00,,,0.00,Wunderground v.1.15,2013-06-05 12:00:00,
2013-06-05 08:08:00,78.4,74.0,29.95,NE,44,1.0,4.0,86,0.00,,,0.00,weatherlink.com 1.10,2013-06-05 12:08:00,
2013-06-05 08:15:00,78.6,74.1,29.96,NNE,33,1.0,5.0,86,0.00,,,0.00,Wunderground v.1.15,2013-06-05 12:15:00,
2013-06-05 08:22:00,78.9,74.0,29.95,ESE,110,0.0,3.0,86,0.00,,,0.00,weatherlink.com 1.10,2013-06-05 12:22:00,
2013-06-05 08:30:00,79.1,74.5,29.96,East,80,0.0,5.0,86,0.00,,,0.00,Wunderground v.1.15,2013-06-05 12:30:00,
2013-06-05 08:37:00,79.4,74.0,29.96,ENE,70,0.0,4.0,85,0.00,,,0.00,weatherlink.com 1.10,2013-06-05 12:37:00,
2013-06-05 08:45:00,79.7,74.8,29.96,NE,49,0.0,5.0,85,0.00,,,0.00,Wunderground v.1.15,2013-06-05 12:45:00,
2013-06-05 08:52:00,79.7,75.0,29.96,SE,134,0.0,2.0,85,0.00,,,0.00,weatherlink.com 1.10,2013-06-05 12:52:00,
2013-06-05 09:00:00,79.7,74.4,29.97,NNE,30,1.0,5.0,84,0.00,,,0.00,Wunderground v.1.15,2013-06-05 13:00:00,
2013-06-05 09:07:00,79.8,75.0,29.97,NE,56,2.0,4.0,85,0.00,,,0.00,weatherlink.com 1.10,2013-06-05 13:07:00,
2013-06-05 09:15:00,79.8,74.9,29.97,NE,47,1.0,5.0,85,0.00,,,0.00,Wunderground v.1.15,2013-06-05 13:15:00,
2013-06-05 09:20:00,79.8,74.9,29.97,NNE,16,1.0,5.0,85,0.00,,,0.00,Wunderground v.1.15,2013-06-05 13:20:00,
2013-06-05 09:30:00,79.8,74.9,29.97,NNE,33,1.0,5.0,85,0.00,,,0.00,Wunderground v.1.15,2013-06-05 13:30:00,
2013-06-05 09:35:00,80.0,75.1,29.97,WNW,296,1.0,5.0,85,0.00,,,0.00,Wunderground v.1.15,2013-06-05 13:35:00,
2013-06-05 09:45:00,80.7,75.4,29.97,ENE,63,1.0,5.0,84,0.00,,,0.00,Wunderground v.1.15,2013-06-05 13:45:00,
2013-06-05 09:53:00,81.3,75.0,29.97,SSE,164,1.0,7.0,82,0.00,,,0.00,weatherlink.com 1.10,2013-06-05 13:53:00,
2013-06-05 10:00:00,81.9,75.9,29.97,SSE,150,1.0,4.0,82,0.00,,,0.00,Wunderground v.1.15,2013-06-05 14:00:00,
2013-06-05 10:05:00,82.0,75.2,29.97,SSE,164,1.0,4.0,80,0.00,,,0.00,Wunderground v.1.15,2013-06-05 14:05:00,
2013-06-05 10:15:00,82.0,75.6,29.98,NNE,23,1.0,4.0,81,0.00,,,0.00,Wunderground v.1.15,2013-06-05 14:15:00,
2013-06-05 10:20:00,81.9,75.9,29.98,NNE,13,2.0,4.0,82,0.00,,,0.00,Wunderground v.1.15,2013-06-05 14:20:00,
2013-06-05 10:25:00,81.8,75.8,29.98,ENE,66,2.0,4.0,82,0.00,,,0.00,Wunderground v.1.15,2013-06-05 14:25:00,
2013-06-05 10:30:00,82.0,76.0,29.98,NE,54,2.0,4.0,82,0.00,,,0.00,Wunderground v.1.15,2013-06-05 14:30:00,
2013-06-05 10:38:00,82.2,76.0,29.98,NNW,328,1.0,7.0,82,0.00,,,0.00,weatherlink.com 1.10,2013-06-05 14:38:00,
2013-06-05 10:45:00,82.1,75.7,29.98,NNE,14,3.0,4.0,81,0.00,,,0.00,Wunderground v.1.15,2013-06-05 14:45:00,
2013-06-05 10:50:00,82.4,76.0,29.98,NE,56,4.0,5.0,81,0.00,,,0.00,Wunderground v.1.15,2013-06-05 14:50:00,
2013-06-05 11:00:00,82.5,76.1,29.98,NE,56,3.0,5.0,81,0.00,,,0.00,Wunderground v.1.15,2013-06-05 15:00:00,
2013-06-05 11:05:00,82.4,76.0,29.98,NNE,18,3.0,5.0,81,0.00,,,0.00,Wunderground v.1.15,2013-06-05 15:05:00,
2013-06-05 11:15:00,82.8,76.4,29.98,NNE,23,3.0,4.0,81,0.00,,,0.00,Wunderground v.1.15,2013-06-05 15:15:00,
2013-06-05 11:23:00,82.9,76.0,29.98,NE,36,2.0,9.0,80,0.00,,,0.00,weatherlink.com 1.10,2013-06-05 15:23:00,
2013-06-05 11:30:00,83.2,76.4,29.99,NE,41,2.0,4.0,80,0.00,,,0.00,Wunderground v.1.15,2013-06-05 15:30:00,
2013-06-05 11:37:00,83.4,76.0,29.98,ENE,73,1.0,6.0,79,0.00,,,0.00,weatherlink.com 1.10,2013-06-05 15:37:00,
2013-06-05 11:45:00,83.7,76.1,29.98,NE,41,1.0,4.0,78,0.00,,,0.00,Wunderground v.1.15,2013-06-05 15:45:00,
2013-06-05 11:52:00,84.0,76.0,29.98,SSE,155,1.0,5.0,77,0.00,,,0.00,weatherlink.com 1.10,2013-06-05 15:52:00,
2013-06-05 12:00:00,84.1,75.7,29.98,ESE,111,1.0,1.0,76,0.00,,,0.00,Wunderground v.1.15,2013-06-05 16:00:00,
2013-06-05 12:07:00,84.1,74.0,29.98,WSW,256,4.0,4.0,72,0.00,,,0.00,weatherlink.com 1.10,2013-06-05 16:07:00,
2013-06-05 12:15:00,83.9,73.9,29.98,NNE,30,1.0,7.0,72,0.00,,,0.00,Wunderground v.1.15,2013-06-05 16:15:00,
2013-06-05 12:20:00,84.0,74.0,29.98,SW,224,1.0,7.0,72,0.00,,,0.00,Wunderground v.1.15,2013-06-05 16:20:00,
2013-06-05 12:25:00,84.0,73.2,29.97,South,184,2.0,7.0,70,0.00,,,0.00,Wunderground v.1.15,2013-06-05 16:25:00,
2013-06-05 12:35:00,85.1,74.2,29.96,NNW,337,1.0,7.0,70,0.00,,,0.00,Wunderground v.1.15,2013-06-05 16:35:00,
2013-06-05 12:40:00,85.7,74.4,29.96,ESE,109,2.0,2.0,69,0.00,,,0.00,Wunderground v.1.15,2013-06-05 16:40:00,
2013-06-05 12:45:00,86.1,74.3,29.96,SSE,152,2.0,7.0,68,0.00,,,0.00,Wunderground v.1.15,2013-06-05 16:45:00,
2013-06-05 12:50:00,86.4,73.7,29.96,ENE,60,2.0,7.0,66,0.00,,,0.00,Wunderground v.1.15,2013-06-05 16:50:00,
2013-06-05 13:00:00,86.0,73.8,29.95,NE,55,2.0,7.0,67,0.00,,,0.00,Wunderground v.1.15,2013-06-05 17:00:00,
2013-06-05 13:05:00,85.9,74.1,29.95,SW,219,2.0,7.0,68,0.00,,,0.00,Wunderground v.1.15,2013-06-05 17:05:00,
2013-06-05 13:15:00,86.0,74.2,29.95,WNW,282,2.0,7.0,68,0.00,,,0.00,Wunderground v.1.15,2013-06-05 17:15:00,
2013-06-05 13:21:00,86.1,74.0,29.95,East,82,2.0,6.0,68,0.00,,,0.00,weatherlink.com 1.10,2013-06-05 17:21:00,
2013-06-05 13:30:00,86.2,73.5,29.95,SSW,198,1.0,7.0,66,0.00,,,0.00,Wunderground v.1.15,2013-06-05 17:30:00,
2013-06-05 13:35:00,86.3,74.0,29.95,NE,47,1.0,7.0,67,0.00,,,0.00,Wunderground v.1.15,2013-06-05 17:35:00,
2013-06-05 13:45:00,86.1,74.3,29.95,SE,141,1.0,7.0,68,0.00,,,0.00,Wunderground v.1.15,2013-06-05 17:45:00,
2013-06-05 13:50:00,86.0,74.0,29.94,NW,319,1.0,7.0,67,0.00,,,0.00,weatherlink.com 1.10,2013-06-05 17:50:00,
2013-06-05 14:01:00,86.3,73.6,29.94,East,79,2.0,2.0,66,0.00,,,0.00,Wunderground v.1.15,2013-06-05 18:01:00,
2013-06-05 14:06:00,86.8,73.0,29.94,SW,235,2.0,7.0,64,0.00,,,0.00,weatherlink.com 1.10,2013-06-05 18:06:00,
2013-06-05 14:15:00,86.8,73.6,29.94,NNE,31,2.0,10.0,65,0.00,,,0.00,Wunderground v.1.15,2013-06-05 18:15:00,
2013-06-05 14:20:00,86.6,73.9,29.94,ESE,120,2.0,2.0,66,0.00,,,0.00,Wunderground v.1.15,2013-06-05 18:20:00,
2013-06-05 14:30:00,86.5,74.2,29.94,NNW,339,1.0,1.0,67,0.00,,,0.00,Wunderground v.1.15,2013-06-05 18:30:00,
2013-06-05 14:35:00,86.2,74.0,29.94,NNE,32,2.0,2.0,67,0.00,,,0.00,Wunderground v.1.15,2013-06-05 18:35:00,
2013-06-05 14:40:00,85.9,73.7,29.94,SSW,197,2.0,10.0,67,0.00,,,0.00,Wunderground v.1.15,2013-06-05 18:40:00,
2013-06-05 14:50:00,85.7,73.9,29.94,SSE,153,1.0,10.0,68,0.00,,,0.00,Wunderground v.1.15,2013-06-05 18:50:00,
2013-06-05 14:55:00,85.5,73.3,29.93,NNW,342,2.0,10.0,67,0.00,,,0.00,Wunderground v.1.15,2013-06-05 18:55:00,
2013-06-05 15:00:00,85.0,73.3,29.93,SE,139,2.0,2.0,68,0.00,,,0.00,Wunderground v.1.15,2013-06-05 19:00:00,
2013-06-05 15:10:00,84.4,73.5,29.93,SE,146,2.0,10.0,70,0.00,,,0.00,Wunderground v.1.15,2013-06-05 19:10:00,
2013-06-05 15:19:00,83.9,73.0,29.93,SSE,168,1.0,5.0,71,0.00,,,0.00,weatherlink.com 1.10,2013-06-05 19:19:00,
2013-06-05 15:25:00,83.7,73.7,29.93,South,175,1.0,10.0,72,0.00,,,0.00,Wunderground v.1.15,2013-06-05 19:25:00,
2013-06-05 15:30:00,83.3,74.1,29.93,NE,42,1.0,1.0,74,0.00,,,0.00,Wunderground v.1.15,2013-06-05 19:30:00,
2013-06-05 15:35:00,83.2,73.6,29.93,SE,140,1.0,10.0,73,0.00,,,0.00,Wunderground v.1.15,2013-06-05 19:35:00,
2013-06-05 15:40:00,83.0,73.9,29.93,North,353,1.0,1.0,74,0.00,,,0.00,Wunderground v.1.15,2013-06-05 19:40:00,
2013-06-05 15:45:00,82.7,72.7,29.93,West,264,1.0,4.0,72,0.00,,,0.00,Wunderground v.1.15,2013-06-05 19:45:00,
2013-06-05 15:50:00,82.5,72.6,29.93,SE,137,2.0,2.0,72,0.00,,,0.00,Wunderground v.1.15,2013-06-05 19:50:00,
2013-06-05 16:00:00,82.1,72.2,29.92,WSW,246,2.0,10.0,72,0.00,,,0.00,Wunderground v.1.15,2013-06-05 20:00:00,
2013-06-05 16:10:00,81.7,72.6,29.92,NE,55,1.0,10.0,74,0.00,,,0.00,Wunderground v.1.15,2013-06-05 20:10:00,
2013-06-05 16:19:00,81.4,73.0,29.92,WSW,248,2.0,4.0,75,0.00,,,0.00,weatherlink.com 1.10,2013-06-05 20:19:00,
2013-06-05 16:25:00,81.2,72.5,29.92,SE,138,1.0,10.0,75,0.00,,,0.00,Wunderground v.1.15,2013-06-05 20:25:00,
2013-06-05 16:30:00,81.1,73.6,29.92,SW,231,1.0,1.0,78,0.00,,,0.00,Wunderground v.1.15,2013-06-05 20:30:00,
2013-06-05 16:35:00,81.0,73.1,29.91,SW,221,1.0,3.0,77,0.00,,,0.00,Wunderground v.1.15,2013-06-05 20:35:00,
2013-06-05 16:45:00,80.9,73.8,29.91,WSW,242,1.0,10.0,79,0.00,,,0.00,Wunderground v.1.15,2013-06-05 20:45:00,
2013-06-05 16:50:00,80.7,74.0,29.91,WNW,296,0.0,6.0,79,0.00,,,0.00,weatherlink.com 1.10,2013-06-05 20:50:00,
2013-06-05 17:00:00,80.1,72.2,29.91,NNE,23,1.0,1.0,77,0.00,,,0.00,Wunderground v.1.15,2013-06-05 21:00:00,
2013-06-05 17:05:00,79.9,72.0,29.90,South,172,1.0,6.0,77,0.00,,,0.00,weatherlink.com 1.10,2013-06-05 21:05:00,
2013-06-05 17:15:00,79.7,71.8,29.90,NW,310,1.0,10.0,77,0.00,,,0.00,Wunderground v.1.15,2013-06-05 21:15:00,
2013-06-05 17:20:00,79.7,71.8,29.90,North,356,0.0,10.0,77,0.00,,,0.00,Wunderground v.1.15,2013-06-05 21:20:00,
2013-06-05 17:25:00,79.6,71.4,29.90,NW,321,1.0,10.0,76,0.00,,,0.00,Wunderground v.1.15,2013-06-05 21:25:00,
2013-06-05 17:34:00,79.6,72.0,29.90,East,81,0.0,4.0,78,0.00,,,0.00,weatherlink.com 1.10,2013-06-05 21:34:00,
2013-06-05 17:40:00,79.4,71.9,29.90,West,261,1.0,10.0,78,0.00,,,0.00,Wunderground v.1.15,2013-06-05 21:40:00,
2013-06-05 17:45:00,79.2,72.1,29.89,West,271,1.0,10.0,79,0.00,,,0.00,Wunderground v.1.15,2013-06-05 21:45:00,
2013-06-05 17:50:00,79.1,72.4,29.89,North,5,1.0,10.0,80,0.00,,,0.00,Wunderground v.1.15,2013-06-05 21:50:00,
2013-06-05 18:00:00,79.2,72.5,29.89,ENE,72,0.0,8.0,80,0.00,,,0.00,Wunderground v.1.15,2013-06-05 22:00:00,
2013-06-05 18:10:00,79.3,73.0,29.89,NNE,19,0.0,8.0,81,0.00,,,0.00,Wunderground v.1.15,2013-06-05 22:10:00,
2013-06-05 18:19:00,79.3,73.0,29.89,ENE,69,0.0,1.0,82,0.00,,,0.00,weatherlink.com 1.10,2013-06-05 22:19:00,
2013-06-05 18:25:00,79.2,73.2,29.89,NE,43,0.0,8.0,82,0.00,,,0.00,Wunderground v.1.15,2013-06-05 22:25:00,
2013-06-05 18:34:00,79.0,73.0,29.89,West,271,0.0,2.0,82,0.00,,,0.00,weatherlink.com 1.10,2013-06-05 22:34:00,
2013-06-05 18:40:00,78.8,72.5,29.88,SSE,155,0.0,8.0,81,0.00,,,0.01,Wunderground v.1.15,2013-06-05 22:40:00,
2013-06-05 18:48:00,78.5,73.0,29.88,NE,46,0.0,3.0,82,0.01,,,0.01,weatherlink.com 1.10,2013-06-05 22:48:00,
2013-06-05 18:55:00,78.2,71.9,29.88,SE,134,0.0,8.0,81,0.00,,,0.01,Wunderground v.1.15,2013-06-05 22:55:00,
2013-06-05 19:00:00,78.0,72.1,29.89,North,359,0.0,8.0,82,0.00,,,0.01,Wunderground v.1.15,2013-06-05 23:00:00,
2013-06-05 19:10:00,77.9,72.0,29.89,SSW,193,1.0,1.0,82,0.00,,,0.01,Wunderground v.1.15,2013-06-05 23:10:00,
2013-06-05 19:18:00,77.7,72.0,29.89,NNE,25,0.0,8.0,82,0.01,,,0.01,weatherlink.com 1.10,2013-06-05 23:18:00,
2013-06-05 19:25:00,77.7,71.8,29.89,NE,47,1.0,8.0,82,0.00,,,0.01,Wunderground v.1.15,2013-06-05 23:25:00,
2013-06-05 19:32:00,77.5,72.0,29.89,ENE,69,1.0,4.0,82,0.01,,,0.01,weatherlink.com 1.10,2013-06-05 23:32:00,
2013-06-05 19:40:00,77.7,71.8,29.89,ENE,59,1.0,1.0,82,0.00,,,0.01,Wunderground v.1.15,2013-06-05 23:40:00,
2013-06-05 19:47:00,77.7,72.0,29.89,NNE,18,2.0,4.0,82,0.00,,,0.01,weatherlink.com 1.10,2013-06-05 23:47:00,
2013-06-05 19:55:00,77.8,71.9,29.89,East,91,1.0,8.0,82,0.00,,,0.01,Wunderground v.1.15,2013-06-05 23:55:00,
2013-06-05 20:00:00,77.7,71.8,29.89,East,80,1.0,7.0,82,0.00,,,0.01,Wunderground v.1.15,2013-06-06 00:00:00,
2013-06-05 20:10:00,77.6,71.7,29.90,NNE,17,1.0,1.0,82,0.00,,,0.01,Wunderground v.1.15,2013-06-06 00:10:00,
2013-06-05 20:17:00,77.5,72.0,29.89,ENE,63,0.0,3.0,83,0.00,,,0.01,weatherlink.com 1.10,2013-06-06 00:17:00,
2013-06-05 20:25:00,77.2,72.0,29.90,NE,46,0.0,7.0,84,0.00,,,0.02,Wunderground v.1.15,2013-06-06 00:25:00,
2013-06-05 20:31:00,76.9,72.0,29.90,ENE,57,0.0,2.0,85,0.01,,,0.02,weatherlink.com 1.10,2013-06-06 00:31:00,
2013-06-05 20:40:00,76.5,72.3,29.90,NE,54,0.0,7.0,87,0.05,,,0.03,Wunderground v.1.15,2013-06-06 00:40:00,
2013-06-05 20:46:00,76.2,72.0,29.90,NE,54,0.0,2.0,88,0.02,,,0.03,weatherlink.com 1.10,2013-06-06 00:46:00,
2013-06-05 20:55:00,75.8,72.7,29.90,ESE,110,0.0,7.0,90,0.07,,,0.04,Wunderground v.1.15,2013-06-06 00:55:00,
2013-06-05 21:01:00,75.7,73.0,29.90,ENE,71,0.0,1.0,91,0.04,,,0.05,weatherlink.com 1.10,2013-06-06 01:01:00,
2013-06-05 21:10:00,75.5,72.7,29.90,NE,43,0.0,7.0,91,0.05,,,0.05,Wunderground v.1.15,2013-06-06 01:10:00,
2013-06-05 21:15:00,75.4,73.0,29.90,SE,127,0.0,4.0,92,0.04,,,0.05,weatherlink.com 1.10,2013-06-06 01:15:00,
2013-06-05 21:25:00,75.4,72.9,29.90,WNW,293,1.0,7.0,92,0.00,,,0.06,Wunderground v.1.15,2013-06-06 01:25:00,
2013-06-05 21:30:00,75.3,73.0,29.90,NE,49,0.0,3.0,92,0.04,,,0.06,weatherlink.com 1.10,2013-06-06 01:30:00,
2013-06-05 21:35:00,75.3,72.8,29.90,North,4,1.0,7.0,92,0.04,,,0.07,Wunderground v.1.15,2013-06-06 01:35:00,
2013-06-05 21:45:00,75.1,72.0,29.90,NNE,33,1.0,5.0,91,0.05,,,0.08,weatherlink.com 1.10,2013-06-06 01:45:00,
2013-06-05 21:50:00,74.9,72.1,29.90,ESE,120,2.0,2.0,91,0.06,,,0.08,Wunderground v.1.15,2013-06-06 01:50:00,
2013-06-05 22:00:00,74.5,71.7,29.90,East,85,1.0,8.0,91,0.00,,,0.08,Wunderground v.1.15,2013-06-06 02:00:00,
2013-06-05 22:10:00,74.4,71.6,29.90,SSE,148,1.0,8.0,91,0.00,,,0.08,Wunderground v.1.15,2013-06-06 02:10:00,
2013-06-05 22:15:00,74.3,71.5,29.90,NNW,344,1.0,8.0,91,0.00,,,0.08,Wunderground v.1.15,2013-06-06 02:15:00,
2013-06-05 22:20:00,74.4,71.6,29.90,ENE,61,1.0,8.0,91,0.00,,,0.08,Wunderground v.1.15,2013-06-06 02:20:00,
2013-06-05 22:30:00,74.4,71.6,29.90,NE,54,2.0,2.0,91,0.00,,,0.08,Wunderground v.1.15,2013-06-06 02:30:00,
2013-06-05 22:40:00,74.3,71.5,29.90,SSE,149,1.0,1.0,91,0.00,,,0.09,Wunderground v.1.15,2013-06-06 02:40:00,
2013-06-05 22:45:00,74.2,72.0,29.90,East,91,0.0,4.0,92,0.01,,,0.09,weatherlink.com 1.10,2013-06-06 02:45:00,
2013-06-05 22:50:00,74.1,71.6,29.89,NW,309,0.0,8.0,92,0.04,,,0.10,Wunderground v.1.15,2013-06-06 02:50:00,
2013-06-05 23:00:00,73.9,72.0,29.89,SSW,196,1.0,3.0,93,0.02,,,0.10,weatherlink.com 1.10,2013-06-06 03:00:00,
2013-06-05 23:05:00,73.8,71.6,29.89,NW,325,1.0,8.0,93,0.05,,,0.11,Wunderground v.1.15,2013-06-06 03:05:00,
2013-06-05 23:14:00,73.9,72.0,29.88,NE,54,0.0,5.0,94,0.03,,,0.11,weatherlink.com 1.10,2013-06-06 03:14:00,
2013-06-05 23:20:00,74.0,72.2,29.88,NNE,26,2.0,2.0,94,0.00,,,0.11,Wunderground v.1.15,2013-06-06 03:20:00,
2013-06-05 23:29:00,74.1,72.0,29.89,NE,40,0.0,4.0,94,0.04,,,0.12,weatherlink.com 1.10,2013-06-06 03:29:00,
2013-06-05 23:35:00,74.2,72.4,29.88,SSE,154,1.0,8.0,94,0.00,,,0.12,Wunderground v.1.15,2013-06-06 03:35:00,
2013-06-05 23:40:00,74.4,72.6,29.88,NE,45,2.0,8.0,94,0.00,,,0.12,Wunderground v.1.15,2013-06-06 03:40:00,
2013-06-05 23:45:00,74.4,72.6,29.88,NE,39,2.0,8.0,94,0.04,,,0.13,Wunderground v.1.15,2013-06-06 03:45:00,
2013-06-05 23:55:00,74.6,72.8,29.88,ENE,60,1.0,8.0,94,0.04,,,0.13,Wunderground v.1.15,2013-06-06 03:55:00,